Location: Unspecified
(51.3318°N, 0.0000°E)
Time: 06:11:46
(UTC+00:00)

Transit 2A Rocket - Visible Passes

Search period start: 04 April 2026 00:00
Search period end: 14 April 2026 00:00
Orbit: 584 x 899 km, 66.7° (Epoch: 28 March)

Date Brightness Start Highest point End Pass type
(mag) Time Alt. Az. Time Alt. Az. Time Alt. Az.
4 Apr 8.0 03:24:08 10° ESE 03:26:03 12° ESE 03:27:57 10° E visible
5 Apr 6.7 04:16:32 10° S 04:21:55 36° ESE 04:27:02 10° NE visible
6 Apr 7.3 03:32:00 10° SSE 03:36:30 23° ESE 03:40:50 10° ENE visible
7 Apr 7.7 02:48:25 10° SE 02:51:12 14° ESE 02:53:56 10° ENE visible
7 Apr 5.6 04:26:52 10° SSW 04:32:43 65° ESE 04:38:15 10° NE visible
8 Apr 6.3 03:41:38 10° S 03:47:09 41° ESE 03:52:23 10° NE visible
9 Apr 6.9 02:56:56 10° SSE 03:01:42 26° ESE 03:06:17 10° ENE visible
9 Apr 5.3 04:37:47 10° SW 04:43:42 74° NW 04:49:14 10° NE visible
10 Apr 7.5 02:12:58 10° SE 02:16:21 16° ESE 02:19:39 10° ENE visible
10 Apr 5.4 03:52:31 12° SSW 03:57:58 74° SE 04:03:31 10° NE visible
11 Apr 6.0 03:08:20 18° S 03:12:22 47° ESE 03:17:41 10° NE visible
12 Apr 6.6 02:24:04 20° SSE 02:26:52 30° ESE 02:31:39 10° NE visible
12 Apr 5.3 04:03:46 13° SW 04:08:59 66° NW 04:14:27 10° NE visible
13 Apr 7.1 01:39:45 16° SE 01:41:29 18° ESE 01:45:14 10° ENE visible
13 Apr 5.2 03:19:26 23° SSW 03:23:14 83° SE 03:28:45 10° NE visible
